This demonstration page uses our WeatherBlox Daily Observations layout. Learn more.

Left ArrowRight Arrow

41.86663, -103.66717

Hourly Observations for August 30, 2021

Temp ( °F °C ) Dew Point ( °F °C ) Humidity (%) Winds ( mph kmh ) Pressure ( in mb ) Visibility ( mi km ) Precip ( " mm )
12:53 am 00:53 Clear 62 16.7 58 14.4 86 86 E 7 11 29.91 1013 10 16 N/A
1:53 am 01:53 Clear 62 16.7 59 15 90 90 E 9 15 29.88 1012 10 16 N/A
2:53 am 02:53 Clear 62 16.7 59 15 90 90 E 8 13 29.87 1012 8 13 N/A
3:20 am 03:20 Mostly Cloudy 62 16.7 59 15 90 90 E 6 9 29.85 1011 7 11 N/A
3:53 am 03:53 Mostly Cloudy 63 17.2 60 15.6 90 90 E 7 11 29.84 1010 8 13 N/A
4:03 am 04:03 Partly Cloudy 63 17.2 60 15.6 90 90 E 6 9 29.83 1010 7 11 N/A
4:53 am 04:53 Clear 63 17.2 60 15.6 90 90 ESE 8 13 29.82 1010 7 11 N/A
5:53 am 05:53 Mostly Clear with Mist and Fog 63 17.2 60 15.6 90 90 ESE 9 15 29.83 1010 6 10 N/A
6:53 am 06:53 Mostly Cloudy 65 18.3 61 16.1 87 87 SE 9 15 29.83 1010 9 14 N/A
7:53 am 07:53 Cloudy 67 19.4 62 16.7 84 84 SSE 8 13 29.83 1010 8 13 N/A
8:53 am 08:53 Cloudy 70 21.1 61 16.1 73 73 SE 10 17 29.83 1010 10 16 N/A
9:53 am 09:53 Mostly Cloudy 73 22.8 61 16.1 66 66 SE 8 13 29.83 1010 10 16 N/A
10:06 am 10:06 Partly Cloudy 74 23.3 61 16.1 64 64 SSE 8 13 29.72 1006 10 16 N/A
10:53 am 10:53 Sunny 77 25 61 16.1 58 58 ESE 6 9 29.82 1010 10 16 N/A
11:53 am 11:53 Sunny 81 27.2 58 14.4 45 45 VRB 5 7 29.78 1009 10 16 N/A
12:53 pm 12:53 Sunny 87 30.6 51 10.6 29 29 VRB 6 9 29.75 1008 10 16 N/A
1:53 pm 13:53 Sunny 90 32.2 50 10 25 25 NW 5 7 29.73 1007 10 16 N/A
2:53 pm 14:53 Sunny 91 32.8 44 6.7 20 20 NNW 9 15 29.70 1006 9 14 N/A
3:53 pm 15:53 Sunny 92 33.3 42 5.6 18 18 NW 6 9 29.68 1005 9 14 N/A
4:53 pm 16:53 Sunny 91 32.8 39 3.9 16 16 WNW 8 13 29.67 1005 8 13 N/A
5:53 pm 17:53 Sunny 90 32.2 38 3.3 16 16 W 3 6 29.67 1005 9 14 N/A
6:53 pm 18:53 Sunny 84 28.9 44 6.7 25 25 N N/A 29.67 1005 8 13 N/A
7:53 pm 19:53 Clear 71 21.7 53 11.7 53 53 N N/A 29.70 1006 8 13 N/A
8:53 pm 20:53 Clear 70 21.1 49 9.4 47 47 SSE 5 7 29.71 1006 7 11 N/A
9:53 pm 21:53 Clear 64 17.8 49 9.4 58 58 N N/A 29.73 1007 9 14 N/A
10:53 pm 22:53 Clear 64 17.8 46 7.8 52 52 N 5 7 29.72 1006 10 16 N/A
11:53 pm 23:53 Clear 61 16.1 47 8.3 60 60 N N/A 29.71 1006 10 16 N/A

Powered by AerisWeather